Tracking 34794 objects as of 19-Jul-2026
HD Live streaming from Space Station
objects crossing your sky now

OBJECT B

Track OBJECT B now!
10-day predictions


NORAD ID: 47692
Int'l Code: 2021-014B
Perigee: 970.8 km
Apogee: 1,230.6 km
Inclination: 63.4 °
Period: 107.1 minutes
Semi major axis: 7471 km
RCS: Unknown
Launch date: February 24, 2021
Source: People's Republic of China (PRC)
Launch site: Jiuquan Satellite Launch Center, China (JSC)

Note: This is a ROCKET BODY
Your satellite tracking list
Your tracking list is empty




NASA's NSSDC Master Catalog

Two Line Element Set (TLE):
1 47692U 21014B   26199.89116162  .00000069  00000-0  24936-3 0  9999
2 47692  63.4057 128.7312 0173829   1.0952 359.0421 13.44229185264742
Source of the keplerian elements: AFSPC